www.pogodaiklimat.ru
ПОГОДА в Арафате
Время
(UTC), дата
15 7.11
18 7.11
21 7.11
00 8.11
03 8.11
06 8.11
09 8.11
12 8.11
15 8.11
18 8.11
21 8.11
00 9.11
03 9.11
06 9.11
09 9.11
12 9.11
15 9.11
18 9.11
21 9.11
00 10.11
03 10.11
06 10.11
09 10.11
12 10.11
15 10.11
18 10.11
21 10.11
00 11.11
03 11.11
09 11.11
12 11.11
15 11.11
18 11.11
21 11.11
00 12.11
03 12.11
06 12.11
09 12.11
12 12.11
15 12.11
18 12.11
21 12.11
00 13.11
03 13.11
06 13.11
09 13.11
12 13.11
15 13.11
18 13.11
21 13.11
00 14.11
03 14.11
06 14.11
09 14.11
12 14.11
Ветер
(напр.,м/с)
Видим. Явления Облачность Т
(С)
Тd
(С)
f
(%)
Тe
(С)
Тes
(С)
Комфортность P
(гПа)
Po
(гПа)
Тmin
(С)
Tmax
(С)
R
(мм)
R24
(мм)
S
(см)
З 2 10 км ясно +32.0 +20.0 49 +38 +38 очень
душно
1009.6 975.5
З 2 10 км ясно +29.0 +22.0 66 +37 +37 очень
душно
1011.8 977.7 +37.0
штиль 0 10 км ясно +28.0 +21.0 66 +35 +35 очень
душно
1010.9 977.0
штиль 0 10 км ясно +27.0 +21.0 70 +34 +34 очень
душно
1009.8 976.0
штиль 0 10 км 1/0
[Ac trans]
+26.8 +20.0 66 +33 +33 очень
душно
1010.6 976.5
штиль 0 10 км 5/1 1200 м
[Sc diur, vesp Ac trans]
+28.0 +21.0 66 +35 +39 очень
душно
1012.1 977.9 +26.0
ЮЗ 2 10 км 4/1 1200 м
[Sc diur, vesp Cc]
+35.0 +16.0 32 +37 +48 очень
душно
1010.9 977.0
З 3 10 км 4/1 1200 м
[Cu hum Ac trans]
+36.0 +17.0 33 +39 +44 очень
душно
1008.7 974.9
ЮЗ 4 10 км 5/5 1050 м
[Cb calv]
+31.3 +22.0 58 +40 +40 очень
душно
1009.8 975.7
В 3 10 км гроза без осадков 5/5 1050 м
[Cb cap]
+28.0 +18.0 55 +33 +33 очень
душно
1012.4 978.1 +37.0
штиль 0 10 км {гроза} 6/0
[Ac und]
+27.8 +18.0 55 +32 +32 душно 1010.4 976.5
штиль 0 10 км ясно +26.6 +18.0 59 +31 +31 душно 1009.9 976.0
ЮВ 1 10 км ясно +25.0 +19.0 69 +30 +30 душно 1010.2 976.0
В 2 10 км ясно +28.0 +16.0 48 +31 +36 душно 1011.5 977.2 +25.0
ЮЗ 3 10 км ясно +35.5 +14.0 28 +36 +47 очень
жарко
1009.1 975.3
З 2 10 км 3/3 1200 м
[Cu hum]
+36.2 +15.0 28 +37 +42 очень
жарко
1007.4 973.6
ЮЗ 3 10 км 5/3 1200 м
[Sc diur, vesp Ci sp]
+32.2 +18.0 43 +37 +37 очень
душно
1008.6 974.5
штиль 0 10 км 5/1 1200 м
[Sc diur, vesp Cs]
+30.4 +17.0 45 +34 +34 очень
душно
1010.3 976.2 +36.7
Ю 1 10 км 9/1 1200 м
[Sc diur, vesp As trans]
+29.2 +18.0 51 +34 +34 очень
душно
1008.2 974.5
Ю 2 10 км ясно +28.4 +17.0 50 +32 +32 душно 1007.6 973.9
штиль 0 10 км ясно +27.0 +19.0 62 +32 +32 очень
душно
1008.9 974.9
ЮВ 3 7000 м мгла ясно +29.2 +20.0 58 +36 +40 очень
душно
1010.3 976.3 +25.0
Ю 3 10 км 1/1 1200 м
[Cu hum]
+34.0 +18.0 39 +38 +48 очень
душно
1008.5 974.7
ЮЗ 3 10 км 3/3 1050 м
[Cu med, cong]
+35.8 +15.0 29 +37 +41 душно 1006.9 973.2
ЮЗ 3 10 км 3/0
[Ci sp]
+32.7 +18.0 42 +37 +37 очень
душно
1007.6 973.7
штиль 0 10 км 3/0
[Ac trans]
+30.0 +20.0 55 +36 +36 очень
душно
1009.4 975.4 +36.0
штиль 0 10 км 3/3 1200 м
[Sc diur, vesp]
+29.0 +20.0 58 +35 +35 очень
душно
1008.7 974.9
штиль 0 10 км 3/3 1200 м
[Sc diur, vesp]
+27.2 +21.0 69 +34 +34 очень
душно
1007.8 974.0
штиль 0 10 км ясно +25.5 +20.0 72 +31 +31 очень
душно
1008.6 974.5
Ю 2 10 км 1/1 1200 м
[Cu hum]
+34.0 +18.0 39 +38 +50 очень
душно
1007.8 974.0
ЮЗ 4 10 км 5/5 900 м
[Cb calv]
+35.4 +17.0 34 +38 +41 очень
душно
1005.8 972.1
З 5 10 км 6/6 900 м
[Cb calv]
+31.4 +22.0 57 +40 +40 очень
душно
1006.5 972.4
В 4 10 км 5/5 900 м
[Cb calv]
+26.4 +16.0 53 +30 +30 душно 1009.1 974.8 +36.4
ЮВ 2 10 км 3/0
[Ac trans]
+26.2 +15.0 50 +29 +29 жарко 1007.9 974.0
С 1 10 км ясно +24.8 +16.0 58 +28 +28 жарко 1007.6 973.7 0.4
ЮВ 1 10 км ясно +23.3 +17.0 68 +28 +28 душно 1008.1 973.9
ЮВ 2 10 км ясно +27.0 +17.0 54 +31 +36 душно 1010.6 976.2 +22.0
ЮЗ 4 10 км ясно +32.0 +17.0 41 +36 +44 очень
душно
1009.3 975.2
Ю 4 10 км 4/4 1050 м
[Cu med, cong]
+35.6 +16.0 31 +38 +40 очень
душно
1007.3 973.4
З 3 10 км 8/4 1200 м
[Sc diur, vesp Ac trans Cs]
+31.6 +21.0 53 +39 +39 очень
душно
1008.4 974.2
штиль 0 10 км ясно +29.4 +22.0 64 +38 +38 очень
душно
1010.0 975.8 +35.6
штиль 0 10 км ясно +27.6 +21.0 67 +35 +35 очень
душно
1009.6 975.6
штиль 0 10 км ясно +27.2 +21.0 69 +34 +34 очень
душно
1008.5 974.7
штиль 0 10 км ясно +25.6 +21.0 76 +32 +32 очень
душно
1009.4 975.3
В 3 10 км 1/0
[Ci fib]
+28.6 +21.0 63 +36 +40 очень
душно
1010.3 976.2 +23.8
Ю 4 10 км 3/1 1200 м
[Cu hum Ci fib]
+33.2 +21.0 49 +41 +49 опасность
перегрева
1009.1 975.2
ЮЗ 3 10 км 6/6 1050 м
[Cb calv]
+33.6 +17.0 37 +37 +39 очень
душно
1007.5 973.6
С 3 10 км гроза без осадков 6/6 1050 м
[Cb cap]
+25.0 +18.0 65 +29 +29 душно 1010.0 975.5
В 2 10 км 3/3 1200 м
[Sc diur, vesp]
+24.0 +20.0 78 +29 +29 душно 1011.7 977.2 +37.0
штиль 0 10 км 6/6 1200 м
[Sc diur, vesp]
+25.0 +20.0 74 +31 +31 очень
душно
1010.9 976.8
штиль 0 10 км 3/3 1200 м
[Sc diur, vesp]
+24.0 +21.0 83 +30 +30 очень
душно
1009.5 975.4 2
В 2 10 км ясно +23.0 +21.0 89 +31 +31 очень
душно
1010.3 975.6
штиль 0 10 км ясно +25.8 +21.0 75 +32 +38 очень
душно
1012.6 977.9 +22.0
штиль 0 10 км 3/0
[Ci fib]
+33.2 +18.0 41 +38 +53 опасность
солнечного
удара
1010.7 976.6
З 3 10 км 5/5 1200 м
[Sc diur, vesp]
+35.6 +15.0 29 +37 +40 душно 1008.6 974.6
Местоположение метеостанции Арафат (Саудовская Аравия): широта 21.33 долгота 39.97 высота над уровнем моря 308 м.
В архиве по умолчанию представлена погода в Арафате за последнюю неделю. Архивные данные за месяц целиком и за предыдущие месяцы, начиная с января 2011 года, Вы можете получить, выбрав интересующий диапазон дат из раскрывающегося списка и нажав кнопку "Найти!".
*Определитесь, кто Вы:
Внимание! Время в таблицах - всемирное. Для получения местного времени необходимо прибавить поправку, которая равна 3 ч.
Смотрите также архив погоды в соседних городах и на ближайших метеорологических станциях:
Партнеры нашего сайта:      
Пояснения к столбцам:
  • Ветер - указаны скорость ветра в м/с - средняя за 10 мин, порывы в срок и между сроками (в фигурных скобках) и направление, откуда дует ветер: С - северный,
  • СВ - северо-восточный, В - восточный, ЮВ - юго-восточный, Ю - южный, ЮЗ - юго-западный, З - западный, СЗ - северо-западный.
  • Видимость - горизонтальная дальность видимости в метрах или километрах. При видимости от 1 до 10 км при отсутствии осадков обычно наблюдается дымка, при ухудшении видимости до 1 км и менее - туман. В сухую погоду видимость может ухудшаться дымом, пылью или мглою.
  • Явления - указаны атмосферные явления, наблюдавшиеся в срок или в последний час перед сроком; фигурными скобками обозначены явления, наблюдавшиеся между сроками (за 1-3 часа до срока); квадратными скобками обозначены град или гололедные отложения с указанием их диаметра в мм.
  • Облачность - указаны через наклонную черту общая и нижняя облачность в баллах и высота нижней границы облаков в метрах; квадратными скобками обозначены формы облаков: Ci - перистые, Cs - перисто-слоистые, Cc - перисто-кучевые, Ac - высококучевые, As - высокослоистые, Sc - слоисто-кучевые, Ns - слоисто-дождевые, Cu - кучевые, Cb - кучево-дождевые. Подробнее классификацию облаков см. в Атласе облаков (PDF).
  • T - Температура воздуха - температура, измеренная на высоте 2 м над землей.
  • Td - Температура точки росы - температура, при понижении до которой содержащийся в воздухе водяной пар достигнет насыщения.
  • f - Относительная влажность воздуха - влажноcть воздуха, измеренная на высоте 2 м над землей.
  • Te - Эффективная температура - температура, которую ощущает одетый по сезону человек в тени. Характеристика душности погоды. При расчете учитывается влияние влажности воздуха и скорости ветра на теплоощущения человека.
  • Tes - Эффективная температура на солнце - температура, которую ощущает человек, с поправкой на солнечный нагрев. Характеристика знойности погоды. Зависит от высоты солнца над горизонтом, облачности и скорости ветра. Ночью, в пасмурную погоду, а также при ветре 12 м/с и более поправка равна нулю.
  • P - Атмосферное давление - приведенное к уровню моря атмосферное давление.
  • Po - Атмосферное давление - измеренное на уровне метеостанции атмосферное давление.
  • Tmin - Минимальная температура - минимум температуры воздуха на высоте 2 м над землей.
  • Tmax - Максимальная температура - максимум температуры воздуха на высоте 2 м над землей.
  • R - Количество осадков - Количество выпавших осадков за период времени, мм. При наведении курсора мыши на число - период времени, за который выпало указанное количество осадков.
  • R24 - Количество осадков - Количество выпавших осадков за 24 часа, мм.
  • S - Снежный покров - Высота снежного покрова, см. При наведении курсора мыши на число - состояние снежного покрова и степень покрытия местности в баллах.